Home > Weather > Sikar > Past weeks

Flag for India Past Weather in Sikar, Rajasthan, India — Yesterday and Last 2 Weeks

Now
93 °F

Low level haze.


Feels Like: 95 °F
Forecast: 85 / 108 °F
Wind: 20 mph from West

Location: Jaipur / Sanganer

Current Time: May 28, 2016 at 9:42:42 AM

Latest Report: May 28, 2016 at 9:00 AM


Visibility: 1 mi

Pressure: 29.71 "Hg

Humidity: 39%

Dew Point: 64 °F

Location of SikarLocation

Past Weather in Sikar — Graph

°F

Sikar Temperature Yesterday

Maximum temperature yesterday: 106 °F (at 4:00 PM)
Minimum temperature yesterday: 88 °F (at 3:30 PM)
Average temperature yesterday: 97 °F

High & Low Weather Summary for the Past Weeks

 TemperatureHumidityPressure
High115 °F (May 19, 2:30 PM)74% (May 24, 1:00 AM)29.77 "Hg (May 24, 1:00 AM)
Low77 °F (May 23, 11:00 PM)5% (May 19, 4:30 PM)29.42 "Hg (May 20, 3:30 PM)
Average98 °F28%29.59 "Hg
* Reported May 13 8:00 AM — May 28 8:00 AM, Sikar, Weather by CustomWeather, © 2016

Note: Actual official high and low records may vary slightly from our data, if they occured in-between our weather recording intervals... More about our weather records

Advertising

Sikar Weather History for the Previous 24 Hours

Scroll right to see more
 ConditionsComfort  
Time TempWeatherWind HumidityBarometerVisibility
8:00 AM
Sat, May 28
91 °FLow level haze.20 mph44%29.71 "Hg1 mi
7:30 AM91 °FHaze.17 mph44%29.71 "Hg1 mi
7:00 AM90 °FHaze.14 mph46%29.71 "Hg1 mi
6:30 AM90 °FHaze.15 mph46%29.68 "Hg1 mi
6:00 AM90 °FHaze.13 mph43%29.68 "Hg1 mi
5:30 AM90 °FHaze.10 mph43%29.65 "Hg1 mi
5:00 AM90 °FHaze.9 mph43%29.65 "Hg1 mi
4:30 AM90 °FHaze.8 mph41%29.65 "Hg1 mi
4:00 AM90 °FHaze.9 mph41%29.65 "Hg1 mi
3:00 AM91 °FHaze.12 mph38%29.62 "Hg1 mi
2:30 AM93 °FHaze.16 mph36%29.62 "Hg1 mi
2:00 AM93 °FHaze.16 mph36%29.62 "Hg1 mi
1:00 AM93 °FHaze.13 mph34%29.65 "Hg1 mi
12:00 AM95 °FHaze.12 mph30%29.65 "Hg1 mi
11:30 PM
Fri, May 27
95 °FHaze.10 mph30%29.65 "Hg1 mi
11:00 PM97 °FHaze.9 mph28%29.65 "Hg1 mi
10:00 PM97 °FHaze.9 mph27%29.65 "Hg1 mi
9:30 PM99 °FHaze.10 mph24%29.65 "Hg1 mi
8:00 PM100 °FHaze.12 mph18%29.62 "Hg1 mi
7:00 PM102 °FHaze.14 mph14%29.62 "Hg1 mi
6:30 PM104 °FHaze.13 mph13%29.62 "Hg1 mi
6:00 PM104 °FLow level haze.17 mph14%29.59 "Hg1 mi
5:30 PM106 °FLow level haze.17 mph13%29.59 "Hg1 mi
5:00 PM106 °FLow level haze.16 mph13%29.62 "Hg1 mi
4:30 PM106 °FLow level haze.15 mph14%29.62 "Hg1 mi
4:00 PM106 °FLow level haze.15 mph14%29.62 "Hg1 mi
3:30 PM88 °FLow level haze.14 mph27%29.62 "Hg1 mi
2:00 PM104 °FLow level haze.21 mph17%29.65 "Hg1 mi
1:00 PM104 °FLow level haze.22 mph14%29.68 "Hg1 mi
12:00 PM100 °FLow level haze.18 mph15%29.68 "Hg1 mi
11:30 AM100 °FLow level haze.23 mph17%29.68 "Hg1 mi
11:01 AM99 °FLow level haze.23 mph21%29.68 "Hg1 mi
10:30 AM99 °FLow level haze.24 mph18%29.71 "Hg1 mi
9:30 AM95 °FLow level haze.21 mph25%29.71 "Hg1 mi
9:00 AM93 °FLow level haze.17 mph24%29.71 "Hg1 mi
Weather by CustomWeather, © 2016

See weather overviewHow to use our weather pages